Location: Darmstadt
(49.8706°N, 8.6494°E)
Time: 06:30:41
(UTC+01:00)

NOSS 3-3 (C) - Pass Details

Date: 31 October 2020
Orbit: 827 x 1385 km, 63.5° (Epoch: 29 November)

Event Time Altitude Azimuth Distance (km) Brightness Sun altitude
Rises 19:25:29 0° 232° (SW) 3,456 7.6 -23.3°
Reaches altitude 10° 19:27:52 10° 236° (SW) 2,569 6.9 -23.7°
Maximum altitude 19:33:48 66° 318° (NW) 1,061 4.3 -24.6°
Enters shadow 19:37:39 27° 34° (NE) 1,896 5.2 -25.2°
